This is the latest recevied weather packets stored in our database for station/object K2ATL. If no packets are shown the sender has not sent any weather packets the latest 10 day(s).
| Time | Temp. | Humidity | Pressure | Rain* | Wind** | Luminosity | Snow |
|---|---|---|---|---|---|---|---|
| 1787877617 | 22.78° C | 94% | 1101.2 hPa | 0 mm | - | 0 W/m² | - |
| 1787877314 | 22.22° C | 94% | 1101.1 hPa | 0 mm | - | 0 W/m² | - |
| 1787877014 | 22.22° C | 94% | 1101.2 hPa | 0 mm | - | 0 W/m² | - |
| 1787876709 | 22.22° C | 95% | 1101 hPa | 0 mm | - | 0 W/m² | - |
| 1787876404 | 22.22° C | 95% | 1101.2 hPa | 0 mm | - | 1 W/m² | - |
| 1787876103 | 22.22° C | 95% | 1101.1 hPa | 0 mm | - | 1 W/m² | - |
| 1787875798 | 22.22° C | 94% | 1101.2 hPa | 0 mm | - | 2 W/m² | - |
| 1787875497 | 22.22° C | 94% | 1101.2 hPa | 0 mm | - | 3 W/m² | - |
| 1787875195 | 22.22° C | 95% | 1101.2 hPa | 0 mm | - | 6 W/m² | - |
| 1787874895 | 22.22° C | 95% | 1101.1 hPa | 0 mm | - | 9 W/m² | - |
| 1787874590 | 22.22° C | 96% | 1101.4 hPa | 0 mm | - | 12 W/m² | - |
| 1787874284 | 22.22° C | 97% | 1101.4 hPa | 0 mm | - | 15 W/m² | - |
| 1787873984 | 22.22° C | 97% | 1101.4 hPa | 0 mm | - | 19 W/m² | - |
| 1787873684 | 22.22° C | 96% | 1101.5 hPa | 0 mm | - | 23 W/m² | - |
| 1787873379 | 22.22° C | 96% | 1101.2 hPa | 0 mm | - | 29 W/m² | - |
| 1787873078 | 22.78° C | 95% | 1101.2 hPa | 0 mm | - | 39 W/m² | - |
| 1787872773 | 22.78° C | 95% | 1101 hPa | 0 mm | - | 61 W/m² | - |
| 1787872470 | 22.78° C | 95% | 1101.2 hPa | 0 mm | - | 72 W/m² | - |
| 1787872169 | 22.78° C | 96% | 1101 hPa | 0 mm | - | 61 W/m² | - |
| 1787871869 | 22.78° C | 96% | 1101.1 hPa | 0 mm | - | 64 W/m² | - |
| 1787871564 | 22.78° C | 95% | 1101.1 hPa | 0 mm | - | 52 W/m² | - |
| 1787871260 | 23.33° C | 94% | 1101.4 hPa | 0 mm | - | 63 W/m² | - |
| 1787870954 | 23.33° C | 94% | 1101.1 hPa | 0 mm | - | 69 W/m² | - |
| 1787870654 | 22.78° C | 93% | 1101.1 hPa | 0 mm | - | 79 W/m² | - |
| 1787870349 | 22.78° C | 95% | 1100.9 hPa | 0 mm | - | 94 W/m² | - |
* Rain latest hour (hover to see other rain measurements)
** Current wind speed in m/s (hover to see current wind gust speed)